Theta_e
357 356 352 352 355 358 359 361 359 357 358 356 359 357 355 353 352 351 352 351 352 352 352 348 349 353 351 354 350 350 348 349 355 349 350 356 353 354 353 354 354 353 351
354 357 357 359 359 358 358 359 354 346 351 356 359 357 355 352 352 352 351 352 352 352 353 352 354 353 354 350 353 350 349 350 347 353 348 354 352 354 354 355 355 348 349
356 355 354 358 358 360 360 359 349 349 349 355 357 357 352 350 347 350 352 352 353 351 352 353 350 352 352 352 355 352 350 352 352 350 348 349 350 353 353 355 354 352 351
354 357 357 356 358 358 357 358 359 351 351 352 354 356 350 351 353 353 352 353 352 350 353 352 352 353 353 353 353 352 354 352 351 351 348 347 349 348 350 350 352 352 353
352 353 353 355 356 355 356 356 357 353 350 352 352 355 353 352 351 352 349 349 351 352 352 351 353 354 353 353 353 354 353 352 351 349 348 347 347 351 351 349 351 350 351
343 345 346 347 347 347 351 357 353 340 333 335 346 353 356 353 348 349 349 350 352 352 348 345 349 352 352 352 351 353 353 351 351 351 350 351 352 352 352 349 348 351 352
337 338 339 342 343 344 345 348 355 352 340 338 352 354 354 356 351 345 347 352 352 353 348 343 341 350 353 354 352 349 349 350 351 354 354 354 353 351 352 353 352 352 352
336 337 336 337 337 338 342 344 345 351 353 355 354 356 357 357 356 350 346 350 352 352 350 350 346 342 352 352 354 352 350 351 349 348 350 354 354 355 352 352 353 352 352
334 334 335 336 336 336 337 340 342 344 345 348 351 355 356 358 357 351 350 349 350 351 352 352 351 352 351 352 353 354 353 353 350 350 350 352 352 352 351 351 351 350 348
334 334 335 335 335 336 337 338 339 343 344 342 345 349 350 355 357 356 349 350 350 351 352 352 348 350 348 351 351 353 351 351 352 350 350 350 350 349 349 347 347 348 344
334 334 335 335 336 336 337 338 338 339 342 344 343 344 347 348 353 357 353 349 348 350 349 351 353 349 351 348 346 349 350 349 351 352 352 351 352 352 352 350 349 349 345
333 333 335 335 335 333 336 338 338 342 345 345 346 345 338 344 348 352 355 351 346 348 349 349 352 351 350 346 340 344 347 347 349 351 351 350 349 350 349 350 350 348 347
332 333 333 334 334 335 335 336 335 335 336 336 337 338 338 337 342 346 353 354 349 349 350 349 350 350 351 350 349 348 347 348 348 348 347 347 349 349 348 349 348 347 348
333 333 332 332 333 333 333 333 333 332 332 334 336 337 337 337 337 343 353 354 353 350 349 349 349 349 349 349 349 348 348 348 348 348 348 347 348 347 348 347 348 347 345
331 332 331 330 330 331 333 331 332 331 330 330 332 333 334 335 337 342 351 354 350 348 347 348 349 349 350 350 350 350 349 348 348 348 348 348 348 350 348 348 346 346 345
332 331 331 330 330 329 330 331 331 329 329 328 328 328 335 338 337 336 342 352 351 348 345 347 350 350 350 350 350 350 349 349 348 348 349 348 349 350 350 347 347 345 341
333 332 331 330 330 329 329 330 330 330 329 328 328 326 326 330 336 335 335 340 348 347 344 339 337 340 345 349 351 350 350 350 349 348 348 349 349 349 350 347 347 344 339
331 332 331 331 331 331 329 330 331 331 332 330 328 327 327 327 331 334 336 340 338 341 339 341 339 340 342 344 349 350 349 349 349 350 348 347 348 349 349 348 346 340 340
332 331 331 331 331 331 330 330 330 329 332 330 330 329 330 335 336 336 337 334 340 342 344 343 343 341 341 341 347 348 347 347 349 349 349 347 348 347 347 346 341 337 341
331 331 331 331 332 331 332 331 331 330 330 330 330 330 336 333 333 332 332 334 339 341 342 344 342 340 340 340 339 343 345 347 348 349 347 348 346 346 344 342 340 338 339
331 331 331 331 331 331 331 331 330 330 330 329 329 329 329 334 334 335 337 334 337 340 341 341 339 339 339 339 339 341 344 347 349 349 348 347 345 345 344 342 339 337 338
332 332 332 332 331 331 331 331 331 331 331 330 329 329 329 329 330 334 337 338 337 338 339 341 341 340 339 339 340 340 340 341 345 347 345 345 346 345 343 340 338 337 337
330 330 330 331 331 331 332 331 331 331 332 332 330 329 330 329 330 334 331 333 336 339 339 341 342 342 342 340 342 343 341 339 340 342 345 344 345 345 342 339 338 337 337
328 330 331 331 331 330 330 330 330 330 331 331 329 329 330 329 332 334 335 336 337 338 340 342 342 342 340 341 341 342 341 339 338 340 342 346 345 345 340 338 338 337 336
322 328 330 332 332 332 332 333 332 331 333 330 329 330 329 330 335 338 338 337 338 339 338 339 341 340 341 340 340 341 341 340 339 341 343 346 345 341 339 338 338 336 335
322 326 328 330 333 334 333 334 333 333 333 334 330 330 330 332 333 336 337 338 338 339 339 339 338 339 339 339 340 341 340 340 341 340 341 342 342 339 339 338 337 335 333
Wind_Speed
12 13 14 13 14 17 19 18 16 14 15 16 14 16 16 17 19 22 22 20 19 18 18 20 20 17 16 14 16 18 13 13 9 14 4 9 5 5 4 4 7 9 11
9 14 20 20 15 15 18 18 13 10 14 18 14 16 16 16 16 19 21 20 19 20 21 19 18 18 18 21 14 13 15 15 12 2 14 12 8 11 9 9 11 14 14
9 13 14 11 12 16 17 18 15 13 14 16 15 17 18 17 16 16 18 19 19 22 19 16 20 20 20 20 17 12 14 11 11 10 11 10 7 9 10 13 13 13 13
2 1 2 3 4 9 11 12 14 13 13 15 18 17 18 18 15 15 17 18 19 21 18 16 18 18 17 18 18 16 15 12 13 8 11 11 10 10 9 14 10 12 14
6 1 2 4 7 9 9 11 10 9 14 19 26 17 19 19 21 20 21 23 21 19 17 16 18 17 18 20 19 17 15 14 12 14 16 12 11 2 5 15 17 15 14
6 4 4 6 7 8 8 10 6 7 18 28 32 25 24 23 24 26 26 26 22 21 23 20 21 17 22 21 22 16 19 16 16 12 14 10 13 11 13 13 11 10 10
7 7 7 7 8 7 8 8 3 12 17 24 28 29 32 22 25 27 27 22 25 24 23 26 21 22 27 22 23 25 22 19 21 15 15 14 13 14 14 10 12 11 14
11 11 11 10 10 11 10 12 11 9 13 20 24 24 22 23 27 27 28 30 24 27 25 26 29 28 24 25 22 21 22 22 26 24 23 20 17 15 13 12 13 12 14
17 17 15 14 14 14 14 15 15 15 15 15 15 18 21 25 29 26 25 26 28 27 25 25 28 25 29 24 24 23 21 22 22 26 23 24 22 20 14 11 13 14 17
21 22 21 19 18 18 18 17 18 18 19 19 19 17 18 23 25 25 21 25 24 27 27 31 28 28 29 28 26 23 21 23 23 18 28 25 25 24 23 22 19 18 16
23 23 24 23 22 21 22 21 20 23 22 21 22 20 20 20 22 26 23 23 20 27 28 26 24 31 34 27 22 29 29 26 25 22 17 19 20 20 19 20 21 19 17
24 24 24 24 25 26 24 25 27 24 22 22 22 24 25 23 22 25 26 29 34 37 29 27 26 31 32 38 32 34 33 28 26 22 22 24 23 28 28 23 21 21 17
25 25 25 25 27 27 26 26 25 25 27 26 26 25 24 23 20 21 27 26 38 37 32 28 25 30 28 30 30 34 33 26 23 24 24 23 25 24 23 22 24 17 13
25 23 26 26 28 28 30 30 29 28 28 26 25 24 23 23 21 20 17 25 29 37 39 32 18 15 21 22 27 31 27 24 25 25 24 25 24 23 19 17 21 18 16
25 26 27 27 26 26 30 30 29 28 29 26 26 25 24 21 18 17 17 15 18 23 23 27 25 24 23 23 23 24 22 24 27 27 25 23 22 17 16 18 18 21 20
25 25 26 26 22 27 27 27 35 37 34 34 33 30 24 20 17 17 10 16 19 20 16 20 21 23 24 23 25 28 27 27 25 26 25 25 20 18 19 23 23 22 19
25 26 26 25 25 25 25 23 21 23 36 34 33 32 35 33 27 25 21 19 23 27 18 18 20 22 21 22 25 26 26 28 29 26 25 24 22 20 21 23 25 24 19
24 25 24 25 25 26 27 25 21 22 21 23 31 38 36 35 33 30 27 20 19 23 23 25 23 20 23 23 20 24 25 21 30 30 27 24 23 21 21 24 24 21 17
23 24 24 25 24 26 23 22 27 26 26 25 26 17 36 30 19 19 18 20 19 20 26 24 27 26 24 22 21 24 29 33 22 30 28 26 24 25 24 25 23 22 19
24 27 28 23 22 21 22 24 23 23 22 20 22 21 21 23 14 13 19 20 23 25 27 27 25 26 26 23 20 22 22 24 27 24 27 28 25 26 25 24 22 20 19
23 20 19 21 21 22 23 25 21 21 19 20 22 26 28 18 20 21 19 20 23 25 25 27 26 25 25 23 22 20 20 23 24 22 23 23 23 24 26 25 23 23 20
18 20 22 24 24 24 19 19 21 23 23 22 24 28 27 20 23 24 23 22 21 25 26 27 27 27 25 27 24 24 25 23 22 24 35 30 27 32 28 25 23 22 21
18 21 24 22 19 23 18 19 21 20 24 23 23 28 25 21 27 31 24 21 20 23 25 27 29 30 29 29 27 28 27 27 26 27 29 36 36 26 26 23 22 24 22
19 20 25 23 22 22 20 20 19 21 23 25 21 29 24 20 26 29 18 19 25 25 25 23 25 28 29 29 30 32 30 29 29 28 32 32 33 34 25 24 25 23 21
18 20 21 24 24 22 19 20 19 19 21 22 23 19 21 24 18 21 15 19 24 22 22 22 29 31 31 31 28 29 31 33 34 32 30 32 34 30 23 25 23 22 23
11 15 18 21 21 17 16 15 15 16 20 20 18 20 23 21 21 18 19 24 26 20 21 24 26 27 26 27 30 33 36 35 32 33 39 31 31 27 26 25 23 22 23
Wind_Direction
227 223 226 222 224 229 236 237 244 247 245 240 233 235 236 235 234 226 220 217 218 219 219 220 215 227 234 232 225 233 244 249 191 217 205 179 191 235 230 231 245 252 258
281 220 222 216 223 237 243 239 236 261 252 244 233 237 232 228 227 224 216 211 217 216 217 213 213 220 225 233 246 238 221 245 263 269 194 226 214 200 209 247 265 271 281
270 238 235 247 231 235 244 250 248 266 255 253 237 232 227 222 207 212 215 217 215 217 218 221 218 217 220 223 228 218 235 234 244 252 271 240 245 201 226 233 236 256 267
353 154 69 270 283 257 266 255 259 251 267 264 243 235 227 222 211 206 217 229 220 220 208 217 221 218 215 217 220 232 229 250 240 258 266 277 269 259 239 273 249 253 266
26 321 281 299 294 287 291 281 277 303 291 286 275 231 231 228 218 212 209 218 223 225 216 222 223 219 223 214 215 220 223 234 237 239 243 252 266 303 212 259 248 265 269
358 2 342 336 344 350 338 306 244 335 292 279 282 251 227 225 226 222 214 210 214 219 219 220 231 239 227 229 229 221 216 221 235 255 258 282 287 283 250 257 272 292 290
317 310 308 313 313 322 322 319 261 251 254 254 259 257 244 224 229 225 223 220 216 216 216 218 221 239 226 224 234 231 235 225 223 239 253 252 253 254 272 290 271 269 266
285 281 284 286 292 300 296 294 295 257 256 262 259 261 259 248 244 229 224 221 223 221 219 224 222 224 238 217 218 225 234 234 236 239 241 247 252 252 259 261 267 269 273
271 273 271 270 271 275 277 279 280 286 279 272 268 271 263 255 253 251 226 219 228 226 222 223 228 231 238 227 218 226 229 231 238 241 239 236 241 244 238 247 251 240 252
268 269 268 268 265 261 265 264 270 268 273 271 269 259 268 268 263 257 240 222 231 234 229 232 224 226 234 238 228 225 233 239 248 247 230 239 240 245 248 244 247 258 268
278 274 270 266 263 260 258 257 257 260 264 269 275 272 266 265 268 263 243 214 246 243 239 222 231 231 224 224 224 234 233 238 246 258 242 239 245 239 235 236 228 240 261
276 277 274 268 265 265 261 252 247 245 249 259 263 267 264 255 251 255 254 223 213 229 240 228 222 227 229 228 232 229 235 238 239 248 245 243 244 236 230 226 224 219 234
270 269 270 270 267 263 259 257 255 251 248 255 256 255 257 253 236 256 249 243 221 219 233 242 233 225 223 221 229 230 232 228 234 241 247 255 243 243 230 234 219 212 229
261 262 267 265 260 259 258 252 244 248 255 252 246 242 245 252 251 254 235 235 240 229 229 240 239 215 209 211 218 219 221 222 226 231 240 244 245 229 219 204 217 200 226
263 263 263 263 263 262 249 252 254 254 256 258 255 253 250 249 245 237 237 226 231 232 229 233 240 240 235 228 227 225 217 220 223 228 237 241 244 243 229 229 221 240 232
266 267 263 263 256 256 258 255 242 243 254 262 264 271 275 274 286 291 292 257 233 235 219 236 238 242 236 234 227 230 229 211 217 224 228 237 244 221 233 231 226 230 232
260 258 261 265 266 253 261 259 264 263 235 243 251 260 264 263 264 273 280 269 252 235 236 238 253 255 253 245 245 242 241 217 214 215 224 230 229 225 228 224 232 228 230
265 264 259 260 261 264 258 264 276 264 264 254 240 242 246 251 258 257 257 251 244 238 245 247 249 243 245 244 244 249 256 261 212 210 216 228 229 214 223 223 225 233 215
263 259 254 252 254 259 267 264 256 266 271 261 262 245 234 237 238 237 241 233 231 231 233 225 236 235 240 235 233 234 244 250 245 217 216 218 217 206 217 223 224 225 194
266 258 253 251 248 253 257 258 266 256 263 273 259 251 208 199 207 223 232 232 235 238 236 238 231 238 239 245 244 235 244 248 239 233 214 227 216 203 211 225 227 224 200
266 262 250 254 253 253 249 251 251 250 269 255 254 254 251 225 227 225 223 227 234 236 233 233 229 228 234 240 237 230 235 240 245 239 231 221 215 227 217 220 221 219 222
264 265 261 250 237 255 248 241 242 254 253 246 257 264 249 239 247 248 221 214 228 234 235 235 236 238 231 229 234 240 241 238 239 241 233 232 228 224 219 211 218 222 217
279 277 279 276 262 240 237 255 263 261 264 251 244 254 250 222 234 241 244 250 242 236 232 234 234 235 244 242 235 238 241 242 239 232 229 219 233 242 212 209 209 220 213
293 266 263 266 269 272 266 256 262 270 267 274 238 238 242 236 231 241 232 240 243 234 236 231 230 233 239 240 235 239 239 241 241 245 228 220 218 229 204 205 215 214 213
288 287 282 273 264 245 251 258 260 257 260 256 252 238 238 249 213 228 225 237 253 253 248 240 229 232 230 236 242 242 243 246 247 245 244 230 222 215 197 207 212 209 211
285 291 290 293 283 290 283 270 253 247 249 258 244 239 251 272 278 260 252 251 248 245 241 240 246 252 250 243 239 241 242 247 245 239 242 242 222 203 194 208 204 211 205